{"data":{"norad_id":59423,"epoch":"2026-09-21T06:53:47.563584Z","epoch_age_seconds":96877,"freshness":"FRESH","line1":"1 59423U 24065C   26264.28735606 -.00000808  00000+0 -18121-5 0  9992","line2":"2 59423  53.1587 209.6789 0001144  81.0930 279.0218 15.69708998142240","mean_motion":15.69708998,"eccentricity":0.0001144,"inclination_deg":53.1587,"raan_deg":209.6789,"arg_perigee_deg":81.093,"mean_anomaly_deg":279.0218,"bstar":-1.8121e-6,"rev_number":14224,"period_min":91.736748775393,"perigee_km":358.95880582069,"apogee_km":360.50042970283,"semimajor_km":6737.8666177618,"source":"CELESTRAK","updated_at":"2026-09-22T09:00:48.938613Z"}}